Content
SEND FEEDBACK

Daily
Averages
Monthly
Summary
United States of America

RAHWAY, NEW JERSEY


Home > North America > United States > New Jersey
Elevation: 20 feet     Latitude: 40 36N     Longitude: 074 16W

WEATHER
 
SELECT A DAY
Number of Records: 189,740;   Date Range: 1/1/95 - 8/12/14
 
SHARE

PRINT THIS DATA

[ ← Previous Day ]
WEATHER ALMANAC - FEBRUARY 16, 2013
[ Next Day → ]
[ °C ]   °F
Weather ElementAverageHighLow
Temperature35.8 °F39.9 °F (1:51 pm)30.9 °F (11:51 pm)
Dewpoint26.4 °F34 °F (1:51 am)12.9 °F (11:51 pm)
Humidity70.8 %93 % (3:58 am)47 % (11:51 pm)
Barometer29.89 in29.96 in (1:51 am)29.75 in (11:51 pm)
Wind Speed12.2 mph23 mph (9:51 pm)
Wind Gust27.6 mph (9:51 pm)
Weather ElementAverage
Visibility9.7 mi
Wind DirectionSW (230.4 °)

Weather ElementTotal
Precipitation0.03 in
Heating Degree Days29.6 (Base 65)
Averaged from 26 records on February 16, 2013
WEATHER CONDITIONS BREAKOUT
WIND DIRECTION BREAKOUT
WEATHER BY HOUR - FEBRUARY 16, 2013
[ °C ]   °F
Local TimeTemperatureDewpointHumidityBarometerVisibilityWind DirectionWind SpeedGust SpeedPrecipitationEventsConditions
1:51 AM37.0 °F34.0 °F89 %29.96 in9.0 miNNW (340°)9.2 mph0.01 inRainLight Rain
2:51 AM37.0 °F34.0 °F89 %29.95 in9.0 miNorth (350°)12.7 mph0.02 inRainLight Rain
3:51 AM37.0 °F34.0 °F89 %29.93 in9.0 miNNE (20°)9.2 mph0.00 inRainLight Rain
3:58 AM35.6 °F33.8 °F93 %29.93 in10.0 miNNE (20°)10.4 mph0.00 inRainLight Rain
4:51 AM36.0 °F32.0 °F86 %29.94 in10.0 miNorth (10°)11.5 mph0.00 inOvercast
5:35 AM35.6 °F32.0 °F87 %29.95 in10.0 miNorth (10°)12.7 mphOvercast
5:51 AM35.1 °F32.0 °F89 %29.96 in9.0 miNorth (350°)13.8 mph0.00 inSnowLight Snow
6:29 AM33.8 °F32.0 °F93 %29.94 in9.0 miNNE (20°)11.5 mph0.00 inOvercast
6:51 AM34.0 °F30.9 °F89 %29.95 in10.0 miNorth (10°)11.5 mph0.00 inOvercast
7:51 AM34.0 °F32.0 °F92 %29.96 in10.0 miNNE (20°)8.1 mphOvercast
8:51 AM35.1 °F32.0 °F89 %29.96 in6.0 miNorth (350°)10.4 mph0.00 inSnowLight Snow
9:51 AM36.0 °F30.0 °F79 %29.95 in10.0 miNorth (360°)12.7 mph0.00 inOvercast
10:51 AM37.0 °F28.9 °F73 %29.94 in10.0 miNorth (360°)15.0 mphOvercast
11:51 AM37.0 °F28.0 °F70 %29.92 in10.0 miNorth (10°)10.4 mphMostly Cloudy
12:51 PM39.0 °F27.0 °F62 %29.90 in10.0 miNorth (360°)8.1 mph18.4 mphMostly Cloudy
1:51 PM39.9 °F24.1 °F53 %29.88 in10.0 miNW (320°)9.2 mph18.4 mphMostly Cloudy
2:51 PM39.9 °F23.0 °F51 %29.86 in10.0 miNNW (340°)12.7 mphMostly Cloudy
3:51 PM37.9 °F21.0 °F51 %29.86 in10.0 miNNW (330°)11.5 mphOvercast
4:51 PM37.0 °F19.0 °F48 %29.85 in10.0 miNNW (340°)9.2 mphOvercast
5:51 PM37.0 °F21.9 °F54 %29.84 in10.0 miNorth (360°)12.7 mphOvercast
6:51 PM36.0 °F18.0 °F48 %29.83 in10.0 miNW (320°)12.7 mphOvercast
7:51 PM35.1 °F21.0 °F57 %29.83 in10.0 miNorth (360°)11.5 mphOvercast
8:51 PM33.1 °F19.0 °F56 %29.82 in10.0 miNNE (20°)16.1 mphOvercast
9:51 PM33.1 °F18.0 °F54 %29.82 in10.0 miNNW (340°)23.0 mph27.6 mphOvercast
10:51 PM32.0 °F16.0 °F52 %29.77 in10.0 miNNW (340°)16.1 mph26.5 mphOvercast
11:51 PM30.9 °F12.9 °F47 %29.75 in10.0 miNNW (330°)16.1 mph24.2 mphOvercast
Hourly data recorded from KEWR, located miles away from Rahway, New Jersey







STORIES FROM OUR PARTNERS